Temperature
18 19 18 18 18 17 17 17 17 17 17 17 17 17 17 17 17 17 17 17 17 16 16 16 16 16 16 16 16 16 16 16 16 16 16 16 16 16 16 16 16 16 16
18 18 18 18 18 17 17 17 17 17 17 17 17 17 17 17 17 17 17 16 16 16 16 16 16 16 16 16 16 16 16 16 16 16 16 16 16 16 16 16 16 15 15
18 18 18 18 17 17 17 17 17 17 17 17 17 17 16 16 16 16 16 16 16 16 16 16 16 16 16 16 16 16 16 16 16 15 15 15 15 15 15 15 15 15 15
17 17 17 17 17 17 17 17 17 17 17 17 17 17 16 16 16 16 16 16 16 16 16 16 16 16 16 16 16 16 16 15 15 15 15 15 15 15 15 15 15 15 15
16 17 17 17 17 17 16 16 16 16 16 16 16 16 16 16 16 16 16 16 16 15 16 16 16 16 16 16 15 15 15 15 15 15 14 14 14 15 15 15 15 15 15
16 16 16 16 16 16 16 16 16 16 16 16 16 16 16 16 16 16 16 16 16 15 15 15 15 15 15 15 15 15 15 15 14 14 14 14 14 14 14 14 14 14 14
16 16 16 16 16 16 16 16 16 16 16 16 16 16 16 16 16 16 15 15 15 15 15 15 15 15 15 15 15 15 15 14 14 14 14 14 14 14 14 14 14 14 14
16 16 16 15 16 16 16 16 16 16 16 16 16 16 16 16 15 15 15 15 15 15 15 15 15 15 15 15 15 15 14 14 14 14 14 14 14 14 14 14 14 14 14
15 15 15 15 15 15 15 15 15 16 16 15 15 15 15 15 15 15 15 15 15 15 15 15 15 15 15 15 14 14 14 14 14 14 14 14 14 14 14 14 14 14 14
15 15 15 15 15 15 15 15 15 15 15 15 15 15 15 15 15 15 15 15 15 15 15 15 15 15 15 14 14 14 14 14 13 13 13 13 13 13 13 13 14 13 13
14 14 14 14 14 15 15 15 15 15 15 15 15 15 15 15 15 15 15 15 15 15 15 15 14 14 14 14 14 14 13 13 13 13 13 13 13 13 13 13 13 13 13
14 14 14 14 14 14 14 14 14 14 14 14 14 14 15 14 14 15 15 14 14 14 14 14 14 14 14 14 14 13 13 13 13 13 13 13 13 13 13 13 13 13 13
14 14 13 14 14 14 14 14 14 14 14 14 14 14 14 14 14 14 14 14 14 14 14 14 13 13 13 13 13 13 13 12 12 12 12 12 12 12 12 12 12 12 12
13 13 13 13 14 14 14 14 14 14 14 14 14 14 14 14 14 14 14 14 14 14 13 13 13 13 13 13 13 13 12 12 12 12 12 12 12 12 12 12 12 12 11
13 13 13 13 13 14 14 14 13 14 14 14 14 13 13 13 13 13 13 13 13 13 13 13 13 13 12 12 12 12 12 12 12 12 12 12 12 11 11 11 11 11 11
13 13 13 13 13 14 14 13 13 13 13 13 13 13 13 13 13 13 13 13 13 13 13 12 12 12 12 12 12 12 12 11 11 11 11 11 11 11 11 11 11 11 11
13 13 13 13 13 13 13 13 13 13 13 13 13 13 13 13 13 12 12 12 12 12 12 12 12 12 12 11 11 11 11 11 11 11 11 10 11 11 11 10 10 10 10
13 13 13 13 13 13 13 13 13 13 13 13 12 12 12 12 12 12 12 12 12 12 12 11 11 11 11 11 11 11 11 11 10 10 10 10 10 10 10 10 10 10 10
12 12 12 12 13 13 13 12 12 12 12 12 12 12 12 12 12 12 12 11 11 11 11 11 11 11 11 11 11 10 10 10 10 10 10 10 10 9 9 9 9 9 9
12 12 12 12 12 12 12 12 12 12 11 12 12 12 11 11 11 11 11 11 11 11 11 10 10 10 10 10 10 10 10 10 10 9 9 9 9 9 9 9 9 9 8
12 12 12 12 12 12 12 12 12 11 11 11 11 11 11 11 11 11 11 11 10 10 10 10 10 10 10 9 10 10 9 9 9 9 9 9 8 8 8 8 8 8 8
11 11 11 11 11 11 12 12 11 11 11 11 11 11 11 11 11 11 11 10 10 10 10 10 10 9 9 9 8 8 8 8 9 9 8 8 8 8 8 8 8 8 8
10 11 11 11 11 11 11 11 11 11 11 10 10 10 10 10 10 10 10 10 10 10 9 9 9 9 9 8 8 8 7 7 7 8 8 8 7 7 7 7 7 7 7
10 10 10 10 10 10 10 11 11 11 11 10 10 10 10 10 10 10 10 10 10 9 9 9 9 9 8 8 8 7 7 6 6 6 7 7 7 7 7 7 7 7 7
9 9 9 10 10 10 10 10 10 10 10 10 10 10 10 9 10 9 9 9 9 9 9 9 9 8 8 8 7 7 7 6 6 6 6 6 7 7 6 6 6 6 6
9 9 9 9 9 9 9 9 10 10 10 10 9 9 9 9 9 9 9 9 9 9 9 8 8 8 8 7 7 7 6 6 6 5 5 5 6 6 6 6 6 5 5
Wind_Speed
10 14 15 15 15 14 13 13 12 12 12 11 11 11 11 12 12 12 11 11 11 10 10 10 10 10 10 10 10 10 9 9 9 8 8 7 7 8 8 7 7 6 7
13 16 16 16 15 14 13 13 13 13 12 12 11 11 11 11 11 11 11 10 10 10 10 10 9 9 9 9 9 9 8 8 7 6 6 6 7 7 7 8 8 6 7
14 16 16 16 15 14 14 13 13 13 13 12 12 11 11 11 11 10 10 10 10 9 9 9 9 9 9 9 8 8 8 7 6 5 4 5 7 7 7 7 7 7 6
13 15 15 16 16 15 14 14 14 13 13 13 13 12 12 11 11 10 10 10 9 9 8 8 8 8 8 8 8 8 7 6 6 6 5 5 7 8 7 7 7 6 6
12 15 16 17 16 15 15 14 14 14 14 14 13 13 12 12 11 11 10 10 9 9 9 9 9 8 8 7 7 6 6 6 6 6 7 8 9 9 9 8 7 7 6
12 15 17 17 16 16 15 15 14 14 14 13 13 13 12 12 12 11 11 10 10 10 10 9 8 8 7 7 6 5 5 6 5 5 7 9 8 8 9 8 8 7 6
12 14 16 17 16 16 15 15 14 14 13 13 13 12 12 12 11 11 11 11 11 10 10 9 8 8 7 6 6 5 5 5 4 5 7 8 7 7 7 7 8 7 6
12 13 15 16 16 16 15 14 14 14 13 13 12 12 12 12 11 11 11 10 10 9 8 8 8 7 7 6 5 5 5 6 5 4 6 6 6 6 6 6 6 7 6
12 12 12 14 15 15 15 14 14 13 13 12 12 12 12 11 11 10 10 10 9 8 8 7 7 6 6 6 5 5 5 5 5 5 5 6 6 6 6 6 6 6 7
10 10 10 12 13 13 13 14 13 13 13 12 12 11 11 11 10 10 10 9 8 8 7 7 6 5 5 4 3 4 4 4 4 5 5 5 6 6 6 6 6 7 7
8 8 8 9 10 12 12 13 13 12 12 11 11 10 8 8 9 10 9 8 7 7 7 6 5 4 3 2 2 3 4 2 3 5 5 5 5 5 6 6 7 7 7
8 7 7 8 9 10 10 10 10 9 9 9 8 8 8 8 8 8 8 7 6 5 5 4 3 3 2 2 2 3 3 3 4 4 5 6 5 5 6 6 7 7 7
8 7 7 7 8 8 6 7 6 7 7 8 8 8 8 7 6 6 5 5 4 4 3 2 2 3 3 3 3 3 3 3 4 5 5 5 5 5 6 6 7 8 8
8 7 7 6 6 7 7 6 6 5 5 6 7 7 7 5 4 4 3 4 3 4 3 3 2 3 4 4 4 4 4 4 4 4 4 4 4 5 6 7 8 8 9
8 8 7 7 6 6 5 5 5 5 6 7 7 7 6 5 3 3 3 4 4 4 3 3 3 3 3 4 4 4 4 4 4 4 3 4 4 4 6 7 8 8 9
9 8 7 7 6 7 5 4 5 6 7 7 7 7 7 6 4 3 3 3 4 4 4 3 3 3 2 3 3 4 4 4 5 4 4 4 4 4 6 7 8 9 10
8 8 8 7 7 7 6 6 6 7 7 6 7 7 7 6 5 4 3 3 3 4 4 4 3 3 2 2 3 3 4 4 4 4 4 3 4 5 6 7 9 9 10
8 8 8 8 8 7 6 6 6 6 7 6 7 7 7 6 6 5 3 3 3 3 3 2 2 2 2 2 2 2 2 2 3 3 4 4 4 4 5 7 8 10 10
7 8 7 7 8 7 6 6 6 6 6 6 7 6 6 6 6 5 3 3 3 3 2 2 2 2 2 3 2 2 2 2 1 2 3 3 4 4 5 6 8 9 10
6 7 7 7 8 8 6 5 5 5 4 5 6 6 7 6 6 5 4 3 3 2 2 2 2 2 2 2 2 2 2 1 1 1 2 3 3 4 5 6 6 8 9
5 6 7 7 7 7 6 5 5 4 4 4 5 7 7 6 5 5 3 3 2 2 2 2 2 2 2 2 2 2 2 1 1 1 2 2 3 4 5 6 6 7 8
5 5 6 6 7 7 5 5 4 5 4 4 4 5 6 6 5 4 4 2 2 2 2 2 2 1 2 2 2 1 2 3 3 2 2 2 2 3 4 6 7 7 8
5 5 5 6 6 7 7 6 5 4 4 3 4 3 5 6 5 4 4 3 2 2 2 1 1 2 1 2 2 2 1 1 3 3 2 2 3 3 4 5 6 8 9
4 4 4 5 5 6 7 7 8 6 5 4 4 4 4 5 5 5 4 3 2 2 2 1 1 1 1 0 1 1 0 1 1 3 3 3 4 4 4 5 5 7 8
5 5 4 5 5 5 6 7 7 6 4 4 5 6 5 4 5 5 4 3 2 2 2 1 1 1 1 1 0 1 1 2 1 2 4 4 4 4 3 4 4 5 7
4 4 4 5 5 5 5 6 6 7 7 7 6 6 5 3 3 4 4 3 3 2 2 1 1 1 1 1 0 0 0 1 2 2 3 5 6 5 5 4 3 3 6
Wind_Direction
123 129 135 135 134 132 129 128 126 123 120 117 114 111 108 105 102 99 98 97 94 91 89 87 84 80 76 72 68 66 64 62 62 63 63 66 69 63 52 44 46 50 53
127 130 134 134 133 131 129 127 122 119 118 117 115 114 112 109 105 101 98 97 94 91 88 85 81 78 75 73 70 67 63 61 57 53 56 65 67 61 51 47 51 47 49
124 129 132 131 131 130 128 124 120 117 115 113 114 113 111 109 105 101 97 95 93 89 86 84 81 78 77 73 70 66 61 55 42 30 38 74 71 61 55 51 49 43 40
123 126 131 130 130 130 127 123 119 117 114 112 111 109 107 105 103 100 97 95 92 89 86 83 81 76 75 74 71 66 58 44 23 15 35 56 64 60 55 46 42 38 35
117 120 125 128 130 129 127 123 119 116 114 111 109 107 105 103 102 99 95 91 89 88 85 81 78 74 74 74 71 65 50 26 12 16 32 54 60 57 52 44 38 32 30
118 119 124 129 129 127 124 121 118 116 114 113 110 107 105 102 100 97 92 87 87 86 83 80 76 73 71 72 70 60 38 15 12 20 44 53 57 53 48 41 34 29 26
118 119 126 130 129 127 124 121 119 116 115 114 111 109 106 103 100 97 93 88 85 84 81 78 75 72 69 66 62 50 24 2 5 28 50 51 54 51 41 34 27 22 19
120 120 125 128 127 126 124 122 120 117 115 113 112 109 106 103 101 97 93 90 86 83 81 79 74 70 66 62 56 39 20 2 356 34 54 47 53 49 36 27 21 19 16
121 125 126 127 125 123 122 122 120 117 116 114 113 111 108 105 102 99 94 90 86 83 80 79 76 69 63 57 46 27 7 357 3 27 46 46 54 49 35 28 21 16 14
124 131 134 133 129 125 120 120 120 119 119 118 116 115 113 110 106 100 94 91 87 84 81 76 70 67 62 52 31 4 346 347 16 34 41 42 48 39 27 20 15 11 6
127 133 136 133 128 124 124 124 123 125 126 125 123 123 121 110 105 101 98 99 93 86 79 73 65 58 56 38 4 333 329 359 61 54 43 44 43 30 16 10 4 358 356
143 139 136 133 129 128 130 131 133 132 134 128 122 112 99 94 96 105 108 107 101 91 80 69 51 33 24 9 349 341 337 4 67 68 52 47 34 16 3 358 353 347 343
148 140 137 132 130 127 126 129 122 120 119 112 106 106 107 104 104 105 109 107 99 89 61 39 30 23 30 19 5 1 354 19 56 67 61 49 31 12 1 357 354 350 346
143 139 133 131 128 124 121 121 121 117 112 108 107 106 104 99 92 88 85 78 68 60 37 12 12 35 30 22 17 16 16 32 56 72 71 52 31 10 359 355 351 349 347
149 144 139 137 131 125 117 123 118 113 112 109 107 100 97 103 104 89 82 68 57 51 32 11 22 32 31 23 15 23 23 24 41 64 76 54 32 6 353 350 349 349 349
151 148 143 143 138 132 129 125 117 112 112 113 107 104 98 96 97 92 83 70 57 41 23 19 34 36 35 27 19 23 21 22 31 46 73 54 25 4 359 354 349 345 342
149 148 146 150 145 140 134 130 118 116 117 114 111 110 104 98 97 94 89 76 54 38 28 23 29 30 27 26 22 19 20 23 21 29 39 42 28 17 3 350 343 340 338
145 145 149 155 146 137 132 128 121 121 119 116 116 115 109 102 101 93 94 85 54 39 35 38 32 32 18 17 10 358 7 7 9 24 29 20 24 17 3 348 339 336 334
147 144 146 146 140 134 126 119 117 117 118 118 118 117 116 109 104 96 95 86 67 50 42 33 39 35 25 13 356 345 355 350 345 16 23 17 15 7 355 345 340 335 332
139 143 143 140 138 133 124 119 115 118 122 118 118 120 120 115 108 101 98 87 74 77 50 46 48 31 34 2 347 344 323 311 326 9 356 6 3 353 345 337 331 326 329
129 136 146 144 147 141 137 140 136 144 143 131 123 125 125 120 114 103 102 92 80 90 73 50 51 47 27 8 12 345 329 305 335 8 358 351 344 338 336 331 329 326 324
139 139 144 148 152 147 147 147 140 139 137 132 124 127 130 124 118 114 111 112 99 95 67 54 53 46 20 24 21 354 345 342 349 336 329 324 328 338 333 330 331 329 323
145 149 152 153 156 152 144 133 125 113 111 120 135 141 136 132 126 118 116 112 106 110 107 70 66 74 58 360 34 62 47 304 320 312 305 318 324 329 321 324 330 330 327
148 143 148 151 153 153 146 149 152 153 154 158 154 150 140 135 131 129 122 115 112 108 112 104 80 76 97 10 348 22 97 210 309 314 313 317 328 321 315 327 328 321 323
142 145 149 148 151 151 154 156 158 154 149 141 142 145 145 141 137 136 131 125 123 114 113 93 79 70 97 126 14 335 331 329 282 259 294 307 316 306 310 312 315 318 323
125 137 145 150 153 152 152 161 161 157 151 149 152 152 152 148 145 145 141 138 134 127 132 128 117 102 85 81 40 22 311 298 301 295 287 301 304 301 302 299 311 323 329
Height
1495 1497 1499 1502 1504 1506 1509 1511 1513 1514 1516 1518 1519 1521 1522 1523 1525 1526 1526 1527 1528 1529 1530 1531 1531 1532 1532 1532 1533 1533 1533 1533 1534 1534 1534 1534 1534 1534 1534 1534 1534 1534 1534
1493 1496 1499 1501 1504 1506 1509 1511 1513 1515 1517 1518 1520 1521 1523 1524 1525 1526 1527 1528 1529 1530 1531 1531 1532 1532 1533 1533 1533 1534 1534 1534 1534 1534 1534 1534 1534 1534 1534 1534 1534 1534 1534
1493 1496 1498 1501 1504 1506 1509 1511 1513 1515 1517 1519 1520 1522 1523 1524 1526 1527 1528 1529 1529 1530 1531 1532 1532 1532 1533 1533 1534 1534 1534 1534 1534 1534 1534 1534 1534 1534 1534 1534 1534 1533 1533
1494 1496 1498 1501 1503 1506 1509 1511 1513 1515 1517 1519 1520 1522 1523 1525 1526 1527 1528 1529 1530 1531 1531 1532 1532 1532 1533 1533 1534 1534 1534 1534 1535 1535 1534 1534 1534 1534 1533 1533 1533 1533 1533
1494 1496 1498 1501 1503 1506 1508 1511 1513 1515 1517 1519 1520 1522 1523 1525 1526 1527 1528 1529 1530 1531 1531 1532 1532 1532 1533 1533 1533 1534 1534 1534 1535 1534 1534 1534 1534 1534 1533 1533 1533 1532 1532
1494 1496 1498 1501 1503 1506 1508 1511 1513 1515 1517 1519 1520 1522 1523 1525 1526 1527 1528 1529 1530 1531 1531 1532 1532 1532 1533 1533 1533 1533 1534 1534 1534 1534 1534 1534 1533 1533 1533 1532 1532 1532 1531
1493 1496 1498 1501 1503 1506 1508 1510 1513 1515 1517 1518 1520 1522 1523 1524 1526 1527 1528 1529 1530 1530 1531 1531 1532 1532 1532 1532 1533 1533 1533 1533 1533 1533 1533 1533 1533 1532 1532 1531 1531 1531 1530
1493 1495 1498 1501 1503 1505 1508 1510 1512 1514 1516 1518 1520 1521 1523 1524 1525 1526 1527 1528 1529 1530 1530 1531 1531 1531 1532 1532 1532 1532 1533 1533 1533 1533 1532 1532 1532 1531 1531 1530 1530 1530 1529
1493 1495 1497 1500 1502 1505 1507 1509 1511 1514 1516 1518 1519 1521 1522 1523 1524 1526 1527 1527 1528 1529 1529 1530 1530 1531 1531 1531 1531 1532 1532 1532 1532 1532 1531 1531 1531 1530 1530 1529 1529 1528 1528
1492 1494 1497 1499 1501 1504 1506 1509 1511 1513 1515 1517 1518 1520 1521 1523 1524 1525 1526 1527 1528 1528 1529 1529 1529 1530 1530 1530 1530 1531 1531 1531 1531 1531 1530 1530 1529 1529 1528 1528 1527 1527 1526
1492 1494 1496 1498 1500 1503 1505 1508 1510 1512 1514 1516 1517 1519 1520 1522 1523 1524 1525 1526 1526 1527 1528 1528 1528 1529 1529 1529 1529 1529 1530 1529 1529 1529 1529 1528 1528 1527 1527 1526 1526 1525 1524
1491 1493 1495 1497 1499 1501 1504 1506 1509 1511 1513 1515 1516 1518 1519 1520 1522 1523 1524 1525 1525 1526 1526 1527 1527 1528 1528 1528 1528 1528 1528 1528 1528 1527 1527 1527 1526 1526 1525 1525 1524 1523 1523
1490 1492 1494 1496 1498 1500 1502 1505 1507 1509 1511 1513 1515 1517 1518 1519 1520 1521 1522 1524 1524 1525 1525 1526 1526 1526 1526 1527 1527 1527 1527 1527 1526 1526 1525 1525 1525 1524 1523 1523 1522 1521 1520
1489 1491 1493 1495 1497 1499 1501 1504 1506 1508 1510 1512 1513 1515 1516 1518 1519 1520 1521 1522 1523 1524 1524 1525 1525 1525 1525 1526 1526 1526 1525 1525 1524 1524 1524 1524 1523 1522 1522 1521 1520 1519 1518
1487 1489 1491 1493 1495 1498 1500 1502 1505 1506 1508 1510 1512 1514 1515 1516 1518 1519 1520 1521 1522 1522 1523 1523 1524 1524 1524 1524 1524 1524 1524 1523 1523 1523 1522 1522 1521 1520 1520 1519 1518 1517 1516
1484 1486 1489 1491 1494 1496 1498 1501 1503 1505 1507 1509 1511 1512 1514 1515 1516 1517 1518 1520 1521 1521 1522 1522 1523 1523 1523 1523 1523 1523 1522 1522 1521 1521 1521 1520 1519 1518 1518 1517 1516 1515 1513
1482 1484 1487 1489 1492 1495 1497 1499 1502 1504 1506 1508 1509 1511 1512 1514 1515 1516 1517 1518 1519 1520 1521 1521 1521 1521 1522 1522 1521 1521 1521 1520 1520 1519 1519 1518 1517 1517 1516 1515 1514 1512 1511
1480 1483 1485 1488 1490 1493 1495 1498 1500 1502 1504 1506 1508 1509 1511 1512 1513 1514 1516 1517 1518 1518 1519 1520 1520 1520 1520 1520 1519 1519 1519 1518 1518 1518 1517 1516 1516 1515 1514 1513 1511 1510 1508
1478 1480 1483 1486 1488 1491 1493 1496 1498 1501 1503 1505 1506 1508 1509 1511 1512 1513 1514 1515 1516 1517 1518 1518 1518 1519 1519 1518 1518 1518 1517 1517 1517 1516 1515 1515 1514 1513 1512 1510 1509 1507 1506
1476 1478 1480 1483 1486 1488 1491 1494 1496 1499 1501 1503 1505 1507 1508 1509 1510 1512 1513 1514 1515 1515 1516 1517 1517 1517 1517 1517 1517 1516 1516 1515 1515 1515 1514 1513 1512 1511 1510 1508 1507 1505 1503
1473 1475 1478 1480 1483 1486 1488 1491 1494 1497 1499 1501 1503 1505 1507 1508 1509 1510 1511 1512 1513 1514 1515 1515 1516 1516 1516 1516 1515 1514 1514 1514 1514 1513 1513 1512 1511 1509 1508 1506 1504 1502 1500
1471 1473 1475 1478 1480 1483 1486 1489 1492 1495 1497 1499 1501 1503 1505 1506 1507 1509 1510 1511 1512 1513 1513 1514 1514 1515 1515 1515 1514 1513 1512 1513 1512 1512 1511 1510 1509 1507 1506 1504 1502 1500 1498
1468 1470 1472 1475 1478 1481 1484 1487 1490 1493 1495 1497 1499 1501 1503 1504 1506 1507 1509 1510 1511 1511 1512 1512 1513 1513 1513 1514 1514 1514 1513 1511 1510 1509 1509 1508 1507 1505 1504 1502 1500 1497 1495
1466 1468 1471 1473 1476 1479 1481 1484 1487 1489 1492 1494 1497 1499 1501 1502 1504 1506 1507 1508 1509 1510 1510 1511 1511 1512 1512 1512 1512 1512 1513 1511 1510 1507 1506 1506 1505 1503 1501 1499 1497 1495 1492
1465 1467 1469 1471 1473 1476 1479 1482 1485 1488 1490 1492 1495 1497 1499 1501 1502 1504 1505 1507 1508 1508 1509 1509 1510 1510 1510 1510 1510 1510 1510 1510 1509 1507 1503 1502 1501 1500 1498 1496 1494 1492 1489
1463 1465 1467 1469 1471 1474 1477 1480 1483 1485 1488 1490 1492 1494 1496 1498 1500 1502 1503 1504 1506 1506 1507 1508 1508 1508 1508 1508 1508 1508 1508 1507 1507 1505 1502 1499 1497 1496 1495 1493 1491 1489 1486